Time,TemperatureF,DewpointF,PressureIn,WindDirection,WindDirectionDegrees,WindSpeedMPH,WindSpeedGustMPH,Humidity,HourlyPrecipIn,Conditions,Clouds,dailyrainin,SolarRadiationWatts/m^2,SoftwareType,DateUTC
2013-01-03 00:02:00,34.0,32.0,-100.00,NNE,21,3.0,7.0,91,0.00,,,0.00,0.000000,,2013-01-03 08:02:00,
2013-01-03 00:11:00,34.0,32.0,-100.00,NNE,21,3.0,7.0,91,0.00,,,0.00,0.000000,,2013-01-03 08:11:00,
2013-01-03 00:22:00,34.0,32.0,-100.00,NNE,21,3.0,7.0,91,0.00,,,0.00,0.000000,,2013-01-03 08:22:00,
2013-01-03 00:32:00,34.0,32.0,-100.00,NNE,21,3.0,7.0,91,0.00,,,0.00,0.000000,,2013-01-03 08:32:00,
2013-01-03 00:33:00,34.0,32.0,-100.00,NE,52,3.0,6.0,92,0.00,,,0.00,0.000000,,2013-01-03 08:33:00,
2013-01-03 00:53:00,34.0,32.0,-100.00,NE,52,3.0,6.0,92,0.00,,,0.00,0.000000,,2013-01-03 08:53:00,
2013-01-03 01:02:00,34.0,32.0,-100.00,NE,52,3.0,6.0,92,0.00,,,0.00,0.000000,,2013-01-03 09:02:00,
2013-01-03 01:12:00,34.0,32.0,-100.00,NE,52,3.0,6.0,92,0.00,,,0.00,0.000000,,2013-01-03 09:12:00,
2013-01-03 01:22:00,34.0,32.0,-100.00,NE,52,3.0,6.0,92,0.00,,,0.00,0.000000,,2013-01-03 09:22:00,
2013-01-03 01:53:00,33.0,31.0,-100.00,NE,36,3.0,7.0,92,0.00,,,0.00,0.000000,,2013-01-03 09:53:00,
2013-01-03 02:02:00,33.0,31.0,-100.00,NE,36,3.0,7.0,92,0.00,,,0.00,0.000000,,2013-01-03 10:02:00,
2013-01-03 02:12:00,33.0,31.0,-100.00,NE,36,3.0,7.0,92,0.00,,,0.00,0.000000,,2013-01-03 10:12:00,
2013-01-03 02:22:00,33.0,31.0,-100.00,NE,36,3.0,7.0,92,0.00,,,0.00,0.000000,,2013-01-03 10:22:00,
2013-01-03 02:32:00,33.0,31.0,-100.00,NE,36,3.0,7.0,92,0.00,,,0.00,0.000000,,2013-01-03 10:32:00,
2013-01-03 02:52:00,32.0,30.0,-100.00,North,357,1.0,8.0,93,0.00,,,0.00,0.000000,,2013-01-03 10:52:00,
2013-01-03 03:02:00,32.0,30.0,-100.00,North,357,1.0,8.0,93,0.00,,,0.00,0.000000,,2013-01-03 11:02:00,
2013-01-03 03:12:00,32.0,30.0,-100.00,North,357,1.0,8.0,93,0.00,,,0.00,0.000000,,2013-01-03 11:12:00,
2013-01-03 03:22:00,32.0,30.0,-100.00,North,357,1.0,8.0,93,0.00,,,0.00,0.000000,,2013-01-03 11:22:00,
2013-01-03 03:32:00,32.0,30.0,-100.00,North,357,1.0,8.0,93,0.00,,,0.00,0.000000,,2013-01-03 11:32:00,
2013-01-03 03:53:00,32.0,30.0,-100.00,NNE,25,1.0,6.0,92,0.00,,,-99.99,0.000000,,2013-01-03 11:53:00,
2013-01-03 04:02:00,32.0,30.0,-100.00,NNE,25,1.0,6.0,92,0.00,,,-99.99,0.000000,,2013-01-03 12:02:00,
2013-01-03 04:12:00,32.0,30.0,-100.00,NNE,25,1.0,6.0,92,0.00,,,-99.99,0.000000,,2013-01-03 12:12:00,
2013-01-03 04:22:00,32.0,30.0,-100.00,NNE,25,1.0,6.0,92,0.00,,,-99.99,0.000000,,2013-01-03 12:22:00,
2013-01-03 04:32:00,32.0,30.0,-100.00,NNE,25,1.0,6.0,92,0.00,,,-99.99,0.000000,,2013-01-03 12:32:00,
2013-01-03 04:53:00,29.0,27.0,-100.00,SE,133,0.0,5.0,91,0.00,,,-99.99,0.000000,,2013-01-03 12:53:00,
2013-01-03 05:02:00,29.0,27.0,-100.00,SE,133,0.0,5.0,91,0.00,,,-99.99,0.000000,,2013-01-03 13:02:00,
2013-01-03 05:12:00,29.0,27.0,-100.00,SE,133,0.0,5.0,91,0.00,,,-99.99,0.000000,,2013-01-03 13:12:00,
2013-01-03 05:22:00,29.0,27.0,-100.00,SE,133,0.0,5.0,91,0.00,,,-99.99,0.000000,,2013-01-03 13:22:00,
2013-01-03 05:32:00,29.0,27.0,-100.00,SE,133,0.0,5.0,91,0.00,,,-99.99,0.000000,,2013-01-03 13:32:00,
2013-01-03 05:53:00,32.0,30.0,-100.00,NNE,23,3.0,6.0,94,0.00,,,0.00,0.000000,,2013-01-03 13:53:00,
2013-01-03 06:02:00,32.0,30.0,-100.00,NNE,23,3.0,6.0,94,0.00,,,0.00,0.000000,,2013-01-03 14:02:00,
2013-01-03 06:12:00,32.0,30.0,-100.00,NNE,23,3.0,6.0,94,0.00,,,0.00,0.000000,,2013-01-03 14:12:00,
2013-01-03 06:22:00,32.0,30.0,-100.00,NNE,23,3.0,6.0,94,0.00,,,0.00,0.000000,,2013-01-03 14:22:00,
2013-01-03 06:32:00,32.0,30.0,-100.00,NNE,23,3.0,6.0,94,0.00,,,0.00,0.000000,,2013-01-03 14:32:00,
2013-01-03 06:33:00,30.0,28.0,-100.00,NNE,25,1.0,6.0,93,0.00,,,-99.99,0.000000,,2013-01-03 14:33:00,
2013-01-03 06:53:00,30.0,28.0,-100.00,NNE,25,1.0,6.0,93,0.00,,,-99.99,0.000000,,2013-01-03 14:53:00,
2013-01-03 07:02:00,30.0,28.0,-100.00,NNE,25,1.0,6.0,93,0.00,,,-99.99,0.000000,,2013-01-03 15:02:00,
2013-01-03 07:12:00,30.0,28.0,-100.00,NNE,25,1.0,6.0,93,0.00,,,-99.99,0.000000,,2013-01-03 15:12:00,
2013-01-03 07:22:00,30.0,28.0,-100.00,NNE,25,1.0,6.0,93,0.00,,,-99.99,0.000000,,2013-01-03 15:22:00,
2013-01-03 07:53:00,31.0,29.0,-100.00,NE,55,1.0,5.0,92,0.00,,,0.00,0.000000,,2013-01-03 15:53:00,
2013-01-03 08:03:00,31.0,29.0,-100.00,NE,55,1.0,5.0,92,0.00,,,0.00,0.000000,,2013-01-03 16:03:00,
2013-01-03 08:12:00,31.0,29.0,-100.00,NE,55,1.0,5.0,92,0.00,,,0.00,0.000000,,2013-01-03 16:12:00,
2013-01-03 08:22:00,31.0,29.0,-100.00,NE,55,1.0,5.0,92,0.00,,,0.00,0.000000,,2013-01-03 16:22:00,
2013-01-03 08:32:00,31.0,29.0,-100.00,NE,55,1.0,5.0,92,0.00,,,0.00,0.000000,,2013-01-03 16:32:00,
2013-01-03 08:53:00,33.0,31.0,-100.00,NNE,30,3.0,8.0,91,0.00,,,0.00,4.000000,,2013-01-03 16:53:00,
2013-01-03 09:03:00,33.0,31.0,-100.00,NNE,30,3.0,8.0,91,0.00,,,0.00,4.000000,,2013-01-03 17:03:00,
2013-01-03 09:12:00,33.0,31.0,-100.00,NNE,30,3.0,8.0,91,0.00,,,0.00,4.000000,,2013-01-03 17:12:00,
2013-01-03 09:22:00,33.0,31.0,-100.00,NNE,30,3.0,8.0,91,0.00,,,0.00,4.000000,,2013-01-03 17:22:00,
2013-01-03 09:32:00,33.0,31.0,-100.00,NNE,30,3.0,8.0,91,0.00,,,0.00,4.000000,,2013-01-03 17:32:00,
2013-01-03 09:33:00,36.0,32.0,-100.00,ENE,71,2.0,9.0,86,0.01,,,-99.99,99.000000,,2013-01-03 17:33:00,
2013-01-03 09:53:00,36.0,32.0,-100.00,ENE,71,2.0,9.0,86,0.01,,,-99.99,99.000000,,2013-01-03 17:53:00,
2013-01-03 10:03:00,36.0,32.0,-100.00,ENE,71,2.0,9.0,86,0.01,,,-99.99,99.000000,,2013-01-03 18:03:00,
2013-01-03 10:12:00,36.0,32.0,-100.00,ENE,71,2.0,9.0,86,0.01,,,-99.99,99.000000,,2013-01-03 18:12:00,
2013-01-03 10:22:00,36.0,32.0,-100.00,ENE,71,2.0,9.0,86,0.01,,,-99.99,99.000000,,2013-01-03 18:22:00,
2013-01-03 10:53:00,38.0,33.0,-100.00,ENE,59,4.0,8.0,81,0.00,,,0.01,234.000000,,2013-01-03 18:53:00,
2013-01-03 11:03:00,38.0,33.0,-100.00,ENE,59,4.0,8.0,81,0.00,,,0.01,234.000000,,2013-01-03 19:03:00,
2013-01-03 11:12:00,38.0,33.0,-100.00,ENE,59,4.0,8.0,81,0.00,,,0.01,234.000000,,2013-01-03 19:12:00,
2013-01-03 11:33:00,41.0,35.0,-100.00,NE,49,2.0,9.0,78,0.00,,,0.01,142.000000,,2013-01-03 19:33:00,
2013-01-03 11:57:00,41.0,35.0,-100.00,NE,49,2.0,9.0,78,0.00,,,0.01,142.000000,,2013-01-03 19:57:00,
2013-01-03 12:02:00,41.0,35.0,-100.00,NE,49,2.0,9.0,78,0.00,,,0.01,142.000000,,2013-01-03 20:02:00,
2013-01-03 12:12:00,41.0,35.0,-100.00,NE,49,2.0,9.0,78,0.00,,,0.01,142.000000,,2013-01-03 20:12:00,
2013-01-03 12:22:00,41.0,35.0,-100.00,NE,49,2.0,9.0,78,0.00,,,0.01,142.000000,,2013-01-03 20:22:00,
2013-01-03 12:33:00,43.0,35.0,-100.00,ENE,76,3.0,7.0,73,0.00,,,0.01,288.000000,,2013-01-03 20:33:00,
2013-01-03 12:53:00,43.0,35.0,-100.00,ENE,76,3.0,7.0,73,0.00,,,0.01,288.000000,,2013-01-03 20:53:00,
2013-01-03 13:02:00,43.0,35.0,-100.00,ENE,76,3.0,7.0,73,0.00,,,0.01,288.000000,,2013-01-03 21:02:00,
2013-01-03 13:12:00,43.0,35.0,-100.00,ENE,76,3.0,7.0,73,0.00,,,0.01,288.000000,,2013-01-03 21:12:00,
2013-01-03 13:22:00,43.0,35.0,-100.00,ENE,76,3.0,7.0,73,0.00,,,0.01,288.000000,,2013-01-03 21:22:00,
2013-01-03 13:53:00,43.0,36.0,-100.00,ENE,64,0.0,7.0,76,0.00,,,0.01,128.000000,,2013-01-03 21:53:00,
2013-01-03 14:02:00,43.0,36.0,-100.00,ENE,64,0.0,7.0,76,0.00,,,0.01,128.000000,,2013-01-03 22:02:00,
2013-01-03 14:12:00,43.0,36.0,-100.00,ENE,64,0.0,7.0,76,0.00,,,0.01,128.000000,,2013-01-03 22:12:00,
2013-01-03 14:22:00,43.0,36.0,-100.00,ENE,64,0.0,7.0,76,0.00,,,0.01,128.000000,,2013-01-03 22:22:00,
2013-01-03 14:32:00,43.0,36.0,-100.00,ENE,64,0.0,7.0,76,0.00,,,0.01,128.000000,,2013-01-03 22:32:00,
2013-01-03 14:52:00,41.0,36.0,-100.00,NE,35,1.0,5.0,82,0.00,,,0.01,47.000000,,2013-01-03 22:52:00,
2013-01-03 15:02:00,41.0,36.0,-100.00,NE,35,1.0,5.0,82,0.00,,,0.01,47.000000,,2013-01-03 23:02:00,
2013-01-03 15:12:00,41.0,36.0,-100.00,NE,35,1.0,5.0,82,0.00,,,0.01,47.000000,,2013-01-03 23:12:00,
2013-01-03 15:22:00,41.0,36.0,-100.00,NE,35,1.0,5.0,82,0.00,,,0.01,47.000000,,2013-01-03 23:22:00,
2013-01-03 15:32:00,41.0,36.0,-100.00,NE,35,1.0,5.0,82,0.00,,,0.01,47.000000,,2013-01-03 23:32:00,
2013-01-03 15:53:00,40.0,38.0,-100.00,NNW,347,1.0,4.0,92,0.01,,,0.02,16.000000,,2013-01-03 23:53:00,
2013-01-03 16:03:00,40.0,38.0,-100.00,NNW,347,1.0,4.0,92,0.01,,,0.02,16.000000,,2013-01-04 00:03:00,
2013-01-03 16:12:00,40.0,38.0,-100.00,NNW,347,1.0,4.0,92,0.01,,,0.02,16.000000,,2013-01-04 00:12:00,
2013-01-03 16:22:00,40.0,38.0,-100.00,NNW,347,1.0,4.0,92,0.01,,,0.02,16.000000,,2013-01-04 00:22:00,
2013-01-03 16:32:00,40.0,38.0,-100.00,NNW,347,1.0,4.0,92,0.01,,,0.02,16.000000,,2013-01-04 00:32:00,
2013-01-03 16:52:00,39.0,37.0,-100.00,NNE,17,2.0,6.0,94,0.01,,,0.03,9.000000,,2013-01-04 00:52:00,
2013-01-03 17:02:00,39.0,37.0,-100.00,NNE,17,2.0,6.0,94,0.01,,,0.03,9.000000,,2013-01-04 01:02:00,
2013-01-03 17:12:00,39.0,37.0,-100.00,NNE,17,2.0,6.0,94,0.01,,,0.03,9.000000,,2013-01-04 01:12:00,
2013-01-03 17:22:00,39.0,37.0,-100.00,NNE,17,2.0,6.0,94,0.01,,,0.03,9.000000,,2013-01-04 01:22:00,
2013-01-03 17:32:00,39.0,37.0,-100.00,NNE,17,2.0,6.0,94,0.01,,,0.03,9.000000,,2013-01-04 01:32:00,
2013-01-03 17:52:00,39.0,37.0,-100.00,NW,309,1.0,6.0,94,0.06,,,0.09,1.000000,,2013-01-04 01:52:00,
2013-01-03 18:02:00,39.0,37.0,-100.00,NW,309,1.0,6.0,94,0.06,,,0.09,1.000000,,2013-01-04 02:02:00,
2013-01-03 18:12:00,39.0,37.0,-100.00,NW,309,1.0,6.0,94,0.06,,,0.09,1.000000,,2013-01-04 02:12:00,
2013-01-03 18:22:00,39.0,37.0,-100.00,NW,309,1.0,6.0,94,0.06,,,0.09,1.000000,,2013-01-04 02:22:00,
2013-01-03 18:32:00,39.0,37.0,-100.00,NW,309,1.0,6.0,94,0.06,,,0.09,1.000000,,2013-01-04 02:32:00,
2013-01-03 18:53:00,38.0,37.0,-100.00,North,351,1.0,7.0,95,0.14,,,0.23,0.000000,,2013-01-04 02:53:00,
2013-01-03 19:02:00,38.0,37.0,-100.00,North,351,1.0,7.0,95,0.14,,,0.23,0.000000,,2013-01-04 03:02:00,
2013-01-03 19:12:00,38.0,37.0,-100.00,North,351,1.0,7.0,95,0.14,,,0.23,0.000000,,2013-01-04 03:12:00,
2013-01-03 19:22:00,38.0,37.0,-100.00,North,351,1.0,7.0,95,0.14,,,0.23,0.000000,,2013-01-04 03:22:00,
2013-01-03 19:32:00,38.0,37.0,-100.00,North,351,1.0,7.0,95,0.14,,,0.23,0.000000,,2013-01-04 03:32:00,
2013-01-03 19:53:00,38.0,37.0,-100.00,NW,315,2.0,5.0,96,0.05,,,0.28,0.000000,,2013-01-04 03:53:00,
2013-01-03 20:02:00,38.0,37.0,-100.00,NW,315,2.0,5.0,96,0.05,,,0.28,0.000000,,2013-01-04 04:02:00,
2013-01-03 20:12:00,38.0,37.0,-100.00,NW,315,2.0,5.0,96,0.05,,,0.28,0.000000,,2013-01-04 04:12:00,
2013-01-03 20:22:00,38.0,37.0,-100.00,NW,315,2.0,5.0,96,0.05,,,0.28,0.000000,,2013-01-04 04:22:00,
2013-01-03 20:32:00,38.0,37.0,-100.00,NW,315,2.0,5.0,96,0.05,,,0.28,0.000000,,2013-01-04 04:32:00,
2013-01-03 20:52:00,38.0,37.0,-100.00,NNW,332,2.0,6.0,96,0.13,,,0.41,0.000000,,2013-01-04 04:52:00,
2013-01-03 21:03:00,38.0,37.0,-100.00,NNW,332,2.0,6.0,96,0.13,,,0.41,0.000000,,2013-01-04 05:03:00,
2013-01-03 21:12:00,38.0,37.0,-100.00,NNW,332,2.0,6.0,96,0.13,,,0.41,0.000000,,2013-01-04 05:12:00,
2013-01-03 21:22:00,38.0,37.0,-100.00,NNW,332,2.0,6.0,96,0.13,,,0.41,0.000000,,2013-01-04 05:22:00,
2013-01-03 21:32:00,38.0,37.0,-100.00,NNW,332,2.0,6.0,96,0.13,,,0.41,0.000000,,2013-01-04 05:32:00,
2013-01-03 21:53:00,38.0,37.0,-100.00,NNW,333,3.0,5.0,96,0.13,,,-99.99,0.000000,,2013-01-04 05:53:00,
2013-01-03 22:02:00,38.0,37.0,-100.00,NNW,333,3.0,5.0,96,0.13,,,-99.99,0.000000,,2013-01-04 06:02:00,
2013-01-03 22:12:00,38.0,37.0,-100.00,NNW,333,3.0,5.0,96,0.13,,,-99.99,0.000000,,2013-01-04 06:12:00,
2013-01-03 22:22:00,38.0,37.0,-100.00,NNW,333,3.0,5.0,96,0.13,,,-99.99,0.000000,,2013-01-04 06:22:00,
2013-01-03 22:32:00,38.0,37.0,-100.00,NNW,333,3.0,5.0,96,0.13,,,-99.99,0.000000,,2013-01-04 06:32:00,
2013-01-03 22:52:00,43.0,42.0,-100.00,SSE,154,4.0,12.0,97,0.02,,,0.56,0.000000,,2013-01-04 06:52:00,
2013-01-03 23:02:00,43.0,42.0,-100.00,SSE,154,4.0,12.0,97,0.02,,,0.56,0.000000,,2013-01-04 07:02:00,
2013-01-03 23:12:00,43.0,42.0,-100.00,SSE,154,4.0,12.0,97,0.02,,,0.56,0.000000,,2013-01-04 07:12:00,
2013-01-03 23:22:00,43.0,42.0,-100.00,SSE,154,4.0,12.0,97,0.02,,,0.56,0.000000,,2013-01-04 07:22:00,
2013-01-03 23:32:00,43.0,42.0,-100.00,SSE,154,4.0,12.0,97,0.02,,,0.56,0.000000,,2013-01-04 07:32:00,
2013-01-03 23:52:00,44.0,42.0,-100.00,SSE,164,5.0,19.0,92,0.00,,,-99.99,0.000000,,2013-01-04 07:52:00,